Las Vegas, NM

1:41 PM MDT on September 25, 2017 (GMT -0600)
Las Vegas Municipal

Weather History for KLVS - October, 2013

Change the Weather History Date:

Sunday, October 20, 2013

  Actual Average Record
Temperature  
Mean Temperature 50 °F -  
Max Temperature 64 °F 63 °F 81 °F (2003)
Min Temperature 36 °F 33 °F 18 °F (1976)
Degree Days  
Heating Degree Days 14    
Moisture  
Dew Point 18 °F    
Average Humidity 33    
Maximum Humidity 76    
Minimum Humidity 13    
Precipitation  
Precipitation 0.00 in - - ()
Sea Level Pressure  
Sea Level Pressure 29.84 in    
Wind  
Wind Speed 7 mph (ENE)    
Max Wind Speed 21 mph    
Max Gust Speed 26 mph    
Visibility 10 miles    
Events      
Averages and records for this station are not official NWS values.
T = Trace of Precipitation, MM = Missing Value Source: NWS Daily Summary

Daily Weather History Graph

Daily Weather History Graph

Search for Another Location

Airport or City:

Trip Planner

Search our weather history database for the weather conditions in past years. The results will help you decide how hot, cold, wet, or windy it might be!

Date:

Astronomy

Oct. 20, 2013 Rise Set
Actual Time 7:11 AM MDT 6:18 PM MDT
Civil Twilight 6:45 AM MDT 6:44 PM MDT
Nautical Twilight 6:16 AM MDT 7:13 PM MDT
Astronomical Twilight 5:46 AM MDT 7:43 PM MDT
Moon 7:32 PM MDT (10/20) 8:48 AM MDT (10/20)
Length of Visible Light 11h 58m
Length of Day
11h 06m
Full, 97% of the Moon is Illuminated
Oct 20
Full
Oct 26
Last Quarter
Nov 3
New
Nov 9
First Quarter
Nov 17
Full

Hourly Weather History & Observations

Time (MDT) Temp. Windchill Dew Point Humidity Pressure Visibility Wind Dir Wind Speed Gust Speed Precip Events Conditions
12:53 AM 41.0 °F - 14.0 °F 33% 29.88 in 10.0 mi Calm Calm - N/A   Clear
1:53 AM 37.0 °F 33.3 °F 16.0 °F 42% 29.88 in 10.0 mi WNW 4.6 mph - N/A   Clear
2:53 AM 37.9 °F 34.4 °F 16.0 °F 41% 29.84 in 10.0 mi North 4.6 mph - N/A   Clear
3:53 AM 37.9 °F 33.5 °F 16.0 °F 41% 29.82 in 10.0 mi WNW 5.8 mph - N/A   Clear
4:53 AM 39.0 °F 34.8 °F 16.0 °F 39% 29.81 in 10.0 mi WNW 5.8 mph - N/A   Clear
5:53 AM 37.0 °F 30.4 °F 17.1 °F 44% 29.83 in 10.0 mi NW 9.2 mph - N/A   Clear
6:53 AM 37.0 °F 31.6 °F 16.0 °F 42% 29.86 in 10.0 mi NNW 6.9 mph - N/A   Clear
7:53 AM 39.0 °F 33.4 °F 17.1 °F 41% 29.87 in 10.0 mi NNW 8.1 mph - N/A   Clear
8:53 AM 45.0 °F 41.2 °F 18.0 °F 34% 29.84 in 10.0 mi NE 6.9 mph - N/A   Clear
9:53 AM 54.0 °F - 19.0 °F 25% 29.81 in 10.0 mi North 8.1 mph - N/A   Clear
10:53 AM 57.9 °F - 19.0 °F 22% 29.80 in 10.0 mi Variable 6.9 mph - N/A   Clear
11:53 AM 62.1 °F - 12.9 °F 15% 29.79 in 10.0 mi Variable 6.9 mph - N/A   Clear
12:53 PM 62.1 °F - 10.0 °F 13% 29.76 in 10.0 mi South 3.5 mph - N/A   Clear
1:53 PM 64.0 °F - 14.0 °F 14% 29.73 in 10.0 mi South 8.1 mph - N/A   Clear
2:53 PM 64.9 °F - 14.0 °F 14% 29.71 in 10.0 mi SE 8.1 mph - N/A   Clear
3:53 PM 64.0 °F - 15.1 °F 15% 29.72 in 10.0 mi SE 9.2 mph - N/A   Clear
4:53 PM 61.0 °F - 17.1 °F 18% 29.73 in 10.0 mi ESE 16.1 mph - N/A   Clear
5:53 PM 57.0 °F - 18.0 °F 22% 29.78 in 10.0 mi ESE 10.4 mph - N/A   Clear
6:53 PM 51.1 °F - 18.0 °F 27% 29.84 in 10.0 mi ESE 11.5 mph - N/A   Clear
7:00 PM 50.0 °F - 17.6 °F 28% 29.99 in 10.0 mi ESE 12.7 mph - N/A   Clear
7:53 PM 50.0 °F - 17.1 °F 27% 29.87 in 10.0 mi ESE 11.5 mph - N/A   Clear
8:53 PM 48.0 °F - 25.0 °F 41% 29.91 in 10.0 mi ENE 20.7 mph 26.5 mph N/A   Overcast
9:53 PM 43.0 °F 36.0 °F 28.9 °F 58% 29.93 in 10.0 mi ENE 13.8 mph - N/A   Mostly Cloudy
10:53 PM 39.9 °F 32.9 °F 28.9 °F 65% 29.94 in 10.0 mi ENE 11.5 mph - N/A   Partly Cloudy
11:53 PM 36.0 °F 28.5 °F 28.9 °F 76% 29.96 in 10.0 mi NE 10.4 mph - N/A   Scattered Clouds